Wind_Speed
51 53 52 51 53 54 52 50 49 48 47 44 42 41 42 42 43 43 42 41 41 40 38 36 34 34 34 34 34 33 33 33 33 32 32 32 31 31 32 33 34 37
51 51 51 51 52 53 53 51 48 46 44 43 42 43 42 42 42 43 44 44 44 43 42 41 39 37 37 37 37 36 36 36 36 35 34 33 33 33 33 33 34 35
52 50 50 49 49 51 52 50 47 47 47 47 47 47 45 44 43 42 44 45 46 46 46 45 44 42 41 40 40 39 39 39 38 38 37 36 36 35 35 34 34 35
52 51 50 49 48 48 49 49 48 48 50 51 53 53 51 48 46 43 43 44 46 46 47 47 47 46 46 44 43 43 42 42 42 41 40 40 39 38 37 36 36 36
54 53 52 52 52 51 50 50 49 49 51 54 57 58 57 54 52 48 45 44 45 46 47 48 49 49 49 48 48 47 46 45 45 44 43 43 42 41 40 39 38 37
55 54 51 53 57 59 58 56 53 53 55 59 60 59 59 58 56 54 50 47 46 47 47 48 49 51 51 51 51 50 50 49 49 48 47 46 45 44 43 41 40 39
56 56 56 57 59 62 62 63 64 65 65 65 62 59 58 58 58 58 56 53 51 51 51 50 51 51 52 53 53 53 53 53 52 52 51 50 48 47 46 45 43 43
59 61 63 64 65 65 65 66 70 72 70 67 63 61 57 55 57 59 59 57 56 56 55 54 53 53 54 54 54 54 55 55 55 54 54 53 51 50 49 48 47 46
62 64 65 66 67 67 67 68 71 72 69 65 61 58 54 49 50 54 57 57 57 58 58 58 57 57 57 57 56 56 56 56 56 56 56 55 54 53 52 52 51 50
65 65 65 65 66 65 64 65 66 65 62 58 56 54 52 50 50 53 56 56 56 57 59 59 59 59 60 61 61 60 59 59 58 58 57 57 56 55 55 54 54 54
67 66 66 65 65 64 61 58 58 57 55 54 53 54 56 56 56 56 58 58 56 55 57 58 58 60 62 63 64 64 63 62 61 60 59 58 57 57 57 56 56 56
67 67 66 65 64 63 59 54 52 50 50 53 54 53 56 59 60 60 60 58 57 56 57 58 58 60 61 62 63 63 63 63 62 61 60 59 59 58 58 58 58 58
63 63 62 61 61 61 58 55 53 49 47 50 51 50 54 57 59 61 58 56 57 57 57 58 59 61 61 62 62 62 62 63 63 62 61 60 59 59 60 60 60 60
60 59 59 59 58 59 56 53 53 51 48 49 50 51 53 53 57 60 58 55 57 56 55 56 58 60 62 62 63 63 62 62 62 62 62 61 60 59 59 60 61 62
57 56 56 56 55 56 56 53 51 51 52 53 53 54 54 52 55 59 58 56 55 52 49 50 52 55 58 60 63 65 66 65 63 63 63 62 61 60 61 62 63 64
56 54 54 55 52 52 56 56 53 53 56 58 59 59 58 55 53 53 53 54 54 51 49 49 50 52 54 56 59 62 64 66 66 65 64 64 64 63 63 64 65 67
57 55 55 56 54 51 53 54 55 57 57 58 60 62 62 58 56 55 54 54 55 55 55 53 53 55 56 57 58 59 61 63 64 65 64 64 65 65 64 65 67 69
57 56 56 56 54 53 54 54 56 58 59 59 59 61 62 62 61 61 60 59 59 59 59 57 56 57 58 59 60 61 61 61 62 63 63 63 64 64 64 66 68 70
58 58 58 57 56 55 56 56 57 59 61 62 62 62 63 63 62 62 62 62 61 61 60 60 60 60 60 61 62 63 63 63 63 64 63 63 62 62 64 66 68 68
57 58 58 58 57 57 57 57 58 60 61 62 62 62 62 62 62 62 62 63 63 63 63 63 63 63 63 63 63 65 65 65 65 65 65 65 64 63 65 67 69 69
56 58 58 59 59 59 59 59 59 60 61 61 62 62 62 62 63 63 64 64 65 66 66 66 66 66 66 66 66 67 67 67 68 68 68 68 67 67 68 70 72 72
56 58 59 60 61 61 61 61 61 61 61 61 61 62 63 64 64 65 66 67 68 69 69 69 69 69 69 69 70 70 70 70 71 71 71 71 71 71 72 73 74 74
59 60 61 62 62 63 63 62 62 62 61 62 63 64 65 65 65 66 67 68 69 70 71 71 72 72 71 71 72 73 73 73 73 74 74 74 74 75 75 76 76 77
61 62 62 63 63 64 64 64 64 64 65 66 66 67 67 67 68 69 69 70 70 70 71 72 73 73 73 73 73 74 75 75 75 76 76 77 77 77 78 78 78 78
62 64 64 65 65 65 66 66 68 69 69 69 69 69 69 69 70 70 71 71 71 72 72 72 73 73 73 73 74 75 75 76 76 77 77 77 78 78 79 79 80 80
64 66 66 67 68 69 69 70 71 72 72 72 72 71 71 71 72 72 72 72 73 73 73 73 73 73 73 73 74 75 75 76 76 77 77 78 78 79 79 80 81 81
Wind_Direction
273 277 279 278 277 276 276 277 278 278 278 278 279 282 282 278 272 268 266 267 268 268 267 266 264 261 259 258 259 262 264 266 266 265 263 260 257 255 252 248 245 242
270 275 280 279 276 274 272 272 274 274 274 274 277 282 282 278 274 268 265 266 266 266 265 265 264 262 260 257 256 258 260 261 263 264 264 263 261 258 255 252 249 246
272 275 278 277 275 273 269 269 271 272 272 271 273 277 277 276 274 271 268 267 266 265 264 264 264 263 261 259 257 256 257 258 260 260 261 261 261 261 259 256 254 251
270 272 274 273 273 273 270 271 273 274 275 274 273 274 274 272 271 270 271 270 267 266 264 264 264 263 262 261 260 258 257 257 258 258 258 257 257 258 260 259 258 256
263 266 268 269 271 271 270 271 273 275 277 278 277 275 273 271 268 267 270 271 268 267 266 264 263 263 262 262 261 260 258 257 257 257 257 256 255 255 256 257 258 259
257 258 262 267 270 271 271 271 271 275 280 281 279 277 274 271 267 264 267 269 268 266 266 266 264 263 261 261 260 259 259 258 257 256 256 255 255 254 254 254 255 256
255 255 259 265 268 270 271 271 271 276 282 283 280 277 275 272 266 262 263 266 264 263 264 265 265 263 260 259 259 258 257 256 255 255 254 254 254 254 253 252 252 253
257 257 260 264 266 267 269 270 272 277 281 281 278 275 274 270 265 260 260 263 264 262 262 262 263 262 260 258 258 258 257 256 255 254 254 253 253 253 252 252 251 251
259 260 262 263 265 268 271 273 274 276 278 277 274 272 270 267 265 262 261 262 264 262 260 259 259 260 259 257 258 258 258 257 255 255 254 253 253 252 252 252 251 251
259 261 263 264 266 269 272 274 275 275 274 272 269 266 264 265 266 264 263 264 265 262 259 257 257 257 257 257 258 259 260 258 256 255 254 254 254 253 252 252 252 251
258 260 262 264 266 267 269 270 270 269 268 267 265 262 262 265 265 264 264 266 266 262 258 257 257 257 257 257 258 259 260 258 257 256 255 254 254 254 254 254 254 253
258 259 261 262 262 262 263 264 263 264 264 263 263 263 265 266 267 266 264 263 262 260 257 257 258 257 257 257 258 259 259 258 257 257 255 254 254 255 255 255 255 256
259 259 259 258 258 259 260 260 258 257 259 261 262 264 267 267 266 265 262 261 262 263 260 258 257 256 256 256 257 257 258 258 257 257 256 255 256 257 257 257 256 256
258 258 257 256 256 256 256 255 253 250 254 259 259 260 263 264 265 266 265 265 266 267 267 264 259 256 255 255 256 256 256 257 257 257 257 257 257 259 260 260 258 257
254 255 256 255 254 253 251 248 247 246 249 254 254 255 258 260 263 266 268 270 269 268 271 271 266 262 260 258 257 256 255 256 257 257 257 257 257 259 261 260 258 257
255 255 255 254 254 255 252 248 247 248 251 253 255 257 259 260 262 264 268 271 271 270 272 272 269 268 266 263 260 258 257 256 256 257 256 255 255 257 259 259 258 256
257 257 256 256 257 255 252 253 255 255 253 253 256 258 259 259 259 260 263 265 266 268 270 269 267 267 267 266 264 262 260 258 258 257 256 254 253 254 255 256 256 256
258 257 255 255 255 251 250 254 257 255 253 252 253 255 258 259 259 259 260 261 261 263 266 265 264 264 265 265 265 265 264 263 261 261 259 257 256 255 254 253 252 254
256 257 256 255 253 251 250 251 252 251 252 252 252 254 257 260 260 260 261 261 261 261 262 262 262 262 262 263 265 265 266 265 265 264 263 262 261 260 259 257 255 254
253 254 255 255 254 253 253 252 251 251 253 254 255 256 258 259 261 262 262 263 263 262 261 261 261 260 261 261 262 263 264 265 265 266 266 265 265 264 264 264 262 259
250 251 251 253 254 255 255 255 254 254 255 256 257 258 259 260 261 262 263 264 264 264 263 262 262 261 261 260 260 260 261 262 263 264 264 265 265 265 264 264 264 263
250 249 249 250 252 254 256 257 257 257 258 259 259 260 261 262 263 264 265 265 266 266 266 265 264 263 263 262 261 260 260 260 261 261 262 262 263 263 263 264 264 265
253 252 252 253 254 255 257 257 258 258 258 259 260 261 262 263 264 265 266 266 267 267 268 268 267 266 265 264 263 263 261 260 260 260 260 260 260 260 261 262 263 265
257 258 259 259 260 260 260 259 259 258 258 259 260 261 263 264 265 265 265 266 267 267 268 269 269 268 267 265 264 264 263 262 261 260 260 260 260 260 260 260 261 262
259 261 262 262 263 263 262 262 262 262 262 262 262 263 264 265 266 267 267 268 268 269 269 269 269 268 268 267 265 264 263 263 262 261 261 261 261 260 260 261 261 261
260 261 263 263 264 264 264 264 264 265 265 265 266 266 266 267 267 268 269 270 270 271 270 270 269 268 268 267 266 265 264 264 263 262 261 260 260 261 261 261 261 261
Height
10565 10563 10567 10570 10570 10571 10573 10574 10573 10572 10572 10573 10574 10574 10574 10575 10575 10576 10576 10577 10577 10577 10578 10578 10578 10579 10579 10579 10579 10579 10580 10580 10580 10581 10581 10581 10582 10582 10583 10584 10585 10586
10563 10561 10562 10563 10563 10564 10567 10568 10567 10566 10566 10567 10567 10568 10568 10569 10569 10570 10570 10571 10572 10572 10573 10573 10573 10574 10574 10575 10575 10575 10575 10575 10576 10576 10577 10577 10577 10578 10579 10580 10581 10582
10558 10559 10557 10557 10557 10558 10559 10561 10562 10561 10560 10561 10561 10562 10563 10563 10564 10564 10565 10566 10567 10567 10568 10568 10568 10569 10569 10570 10570 10570 10570 10571 10571 10572 10572 10573 10573 10573 10574 10575 10576 10577
10552 10553 10553 10552 10552 10552 10553 10555 10556 10556 10556 10555 10555 10556 10558 10559 10559 10559 10560 10560 10561 10563 10563 10564 10564 10564 10565 10565 10565 10565 10566 10566 10566 10567 10567 10568 10569 10569 10570 10571 10572 10573
10545 10546 10548 10548 10547 10547 10548 10549 10551 10552 10551 10550 10550 10551 10552 10553 10554 10554 10555 10555 10556 10558 10558 10559 10560 10560 10560 10560 10560 10560 10561 10561 10561 10562 10562 10563 10564 10565 10566 10567 10568 10568
10540 10540 10542 10543 10542 10541 10542 10544 10544 10545 10545 10544 10544 10545 10546 10547 10548 10549 10550 10550 10551 10552 10553 10553 10553 10554 10554 10554 10554 10555 10555 10556 10556 10557 10557 10558 10559 10560 10561 10562 10563 10564
10536 10536 10537 10538 10537 10537 10538 10539 10537 10536 10536 10537 10537 10538 10539 10539 10541 10542 10543 10543 10544 10545 10546 10547 10547 10547 10547 10548 10548 10548 10548 10549 10549 10550 10551 10552 10553 10555 10556 10557 10558 10558
10531 10530 10531 10533 10532 10533 10535 10535 10531 10528 10528 10529 10529 10531 10532 10532 10532 10533 10534 10535 10536 10537 10538 10539 10540 10540 10540 10540 10540 10541 10541 10542 10543 10544 10545 10546 10548 10549 10550 10551 10552 10552
10524 10524 10525 10527 10527 10528 10529 10528 10523 10520 10521 10522 10521 10522 10524 10525 10525 10525 10526 10527 10528 10528 10529 10530 10531 10531 10532 10532 10533 10533 10534 10536 10537 10537 10539 10540 10541 10543 10544 10545 10545 10546
10518 10518 10519 10521 10523 10524 10523 10520 10515 10513 10514 10515 10514 10513 10514 10515 10517 10518 10518 10519 10519 10519 10520 10521 10521 10523 10524 10524 10525 10526 10528 10529 10530 10531 10532 10533 10535 10536 10537 10538 10539 10540
10513 10513 10514 10517 10518 10518 10515 10512 10509 10507 10507 10507 10506 10506 10506 10506 10508 10510 10511 10511 10511 10511 10511 10512 10512 10514 10515 10516 10517 10518 10520 10521 10523 10524 10525 10527 10529 10529 10530 10532 10533 10534
10507 10508 10510 10512 10511 10508 10507 10506 10503 10501 10499 10498 10499 10500 10498 10497 10498 10499 10501 10502 10502 10503 10503 10503 10504 10506 10507 10509 10510 10511 10512 10514 10515 10517 10518 10520 10522 10522 10523 10525 10526 10527
10501 10502 10503 10504 10503 10501 10501 10500 10497 10494 10491 10491 10494 10494 10490 10489 10489 10489 10492 10494 10495 10495 10496 10496 10497 10498 10500 10501 10503 10504 10505 10506 10507 10509 10511 10512 10514 10515 10516 10517 10519 10519
10492 10492 10492 10494 10495 10494 10494 10493 10490 10488 10486 10486 10489 10487 10483 10483 10483 10482 10484 10488 10489 10490 10490 10491 10491 10492 10493 10494 10495 10496 10497 10498 10500 10502 10504 10505 10506 10507 10507 10508 10510 10510
10483 10484 10485 10485 10485 10484 10483 10484 10483 10481 10480 10480 10481 10481 10480 10481 10480 10478 10479 10481 10484 10485 10484 10484 10484 10483 10484 10486 10487 10487 10489 10490 10492 10494 10496 10498 10499 10499 10498 10499 10500 10500
10475 10479 10480 10477 10477 10475 10473 10476 10477 10475 10474 10474 10475 10476 10478 10479 10478 10476 10475 10475 10477 10478 10477 10477 10476 10474 10475 10476 10477 10477 10479 10481 10482 10484 10487 10489 10490 10490 10489 10489 10489 10489
10468 10472 10472 10470 10470 10469 10466 10468 10470 10470 10470 10470 10471 10471 10473 10475 10475 10473 10472 10471 10471 10470 10469 10469 10468 10466 10466 10466 10466 10468 10469 10471 10472 10474 10476 10478 10479 10480 10481 10480 10478 10477
10460 10462 10462 10461 10462 10462 10461 10461 10462 10463 10464 10465 10465 10465 10466 10468 10468 10468 10466 10466 10465 10463 10462 10461 10460 10459 10458 10458 10459 10459 10460 10462 10463 10463 10465 10466 10468 10471 10471 10469 10467 10467
10453 10453 10452 10452 10453 10454 10454 10455 10455 10455 10456 10457 10458 10459 10459 10459 10459 10459 10458 10457 10457 10455 10453 10452 10451 10451 10451 10452 10452 10452 10452 10453 10453 10453 10454 10456 10459 10460 10459 10457 10458 10460
10445 10444 10443 10443 10443 10444 10445 10446 10447 10448 10448 10449 10450 10451 10451 10451 10451 10450 10449 10448 10447 10446 10444 10443 10443 10443 10445 10445 10445 10444 10444 10445 10445 10445 10445 10447 10449 10450 10449 10447 10446 10448
10437 10436 10435 10434 10434 10434 10436 10437 10438 10439 10440 10442 10442 10442 10442 10442 10441 10441 10440 10439 10437 10435 10435 10434 10434 10435 10436 10437 10437 10437 10437 10437 10437 10437 10437 10437 10438 10439 10438 10436 10434 10435
10428 10428 10427 10426 10426 10426 10427 10428 10429 10431 10432 10433 10433 10433 10433 10432 10432 10431 10430 10429 10427 10425 10425 10425 10425 10426 10427 10427 10427 10427 10428 10429 10429 10428 10428 10428 10429 10428 10427 10426 10425 10425
10416 10417 10417 10418 10418 10419 10420 10421 10421 10423 10424 10424 10424 10423 10423 10423 10423 10422 10420 10419 10418 10416 10415 10415 10414 10415 10416 10417 10416 10415 10416 10417 10418 10418 10418 10418 10419 10419 10418 10417 10417 10416
10405 10405 10406 10408 10408 10409 10410 10411 10412 10413 10414 10414 10414 10414 10414 10414 10413 10411 10410 10409 10408 10407 10407 10406 10404 10404 10405 10405 10405 10404 10404 10404 10406 10407 10407 10407 10408 10409 10408 10408 10408 10408
10395 10395 10395 10396 10397 10397 10398 10399 10399 10400 10401 10402 10402 10403 10404 10403 10402 10400 10399 10398 10397 10396 10396 10396 10395 10394 10394 10393 10392 10392 10392 10392 10393 10394 10395 10396 10396 10397 10397 10397 10397 10398
10383 10383 10384 10384 10385 10385 10386 10387 10387 10387 10388 10389 10390 10391 10392 10391 10390 10389 10388 10386 10385 10384 10384 10384 10383 10383 10382 10381 10381 10380 10380 10381 10381 10381 10383 10384 10385 10385 10386 10386 10386 10386